sat.trackr.live / text

‹ back to catalog

QIANFAN-68

NORAD 62798 · 2025-016P

PAYLOAD ACTIVE UNKNOWN

§ Identity

Operator
Country
PRC
Launch date
2025-01-23
Launch site
TAISC
Launch vehicle
Mass (kg)
RCS (m²)

External: N2YO · Heavens-Above · Gunter

§ Orbital elements

Epoch: 2026-05-25T03:20:28.525056Z

Period
106.59 min
Inclination
88.9730°
Eccentricity
0.0013010
Mean motion
13.51012210 rev/d
Perigee alt
1,058.8 km
Apogee alt
1,078.2 km
Semi-major
7,446.7 km
B*
1.4260e-4
RAAN
86.1476°
Arg perigee
226.9664°
Mean anomaly
133.0398°
Rev number
6,930

§ Raw data

QIANFAN-681 62798U 25016P   26145.13921904  .00000104  00000+0  14260-3 0  99932 62798  88.9730  86.1476 0013010 226.9664 133.0398 13.51012210 69302

JSON: /api/v1/satellites/62798 · /tle

For live sub-satellite position, see the globe view (requires WebGL).

§ Visibility from observer

Set your observer location to see the next 7 days of passes ≥ 10°. The values pass through the URL so the page stays shareable.

No JS? Fill the form by hand. The geolocation button needs JavaScript.